Date String (YYYY-MM-DD hh:mm:ss) UTC,Instrument flags,Ambient pressure (hPa),Sample flow (lpm),Bypass flow (lpm),Sample temperature (°C),Ambient temperature (°C),ASC tube jacket temperature (°C),LED temperature (°C),Box temperature (°C),Sample RH (%),Span deviation,Mass concentration (μg/m³),Mass concentration (μg/m³),Mass concentration (μg/m³)
DateTimeUTC,F1_M11,P_M11,Q1_M11,Q2_M11,T1_M11,T2_M11,T3_M11,T4_M11,T5_M11,U1_M11,ZSPAN_M11,X0_M11,X2_M11,X1_M11
2022-04-06 03:00:00,,0821.4,5.00,0.00,23.2,22.3,00.0,32.3,25.0,07.0,0000.0,0012.49,0003.17,0001.01
2022-04-06 03:01:00,,0821.5,5.00,0.00,23.2,22.3,00.0,32.3,25.0,07.0,0000.0,0012.87,0003.14,0001.00
2022-04-06 03:02:00,,0821.7,5.00,0.00,23.2,22.3,00.0,32.2,24.9,07.1,0000.0,0013.17,0003.02,0000.99
2022-04-06 03:03:00,,0821.7,5.00,0.00,23.2,22.3,00.0,32.2,24.9,06.9,0000.0,0014.50,0003.09,0000.99
2022-04-06 03:04:00,,0821.7,4.99,0.00,23.1,22.2,00.0,32.2,24.9,07.0,0000.0,0014.68,0003.17,0001.00
2022-04-06 03:05:00,,0821.8,5.00,0.00,23.1,22.2,00.0,32.2,24.9,07.1,0000.0,0014.97,0003.19,0001.00
2022-04-06 03:06:00,,0821.8,5.02,0.00,23.1,22.2,00.0,32.2,24.9,07.1,0000.0,0015.35,0003.16,0001.00
2022-04-06 03:07:00,,0821.7,5.00,0.00,23.1,22.2,00.0,32.2,24.9,07.1,0000.0,0015.39,0003.13,0001.00
2022-04-06 03:08:00,,0821.7,5.00,0.00,23.1,22.2,00.0,32.2,24.9,07.0,0000.0,0015.95,0003.09,0001.00
2022-04-06 03:09:00,,0821.7,5.00,0.00,23.1,22.2,00.0,32.2,24.9,07.1,0000.0,0015.97,0003.12,0001.00
2022-04-06 03:10:00,,0821.8,5.00,0.00,23.1,22.2,00.0,32.2,24.9,07.1,0000.0,0014.84,0003.09,0000.99
2022-04-06 03:11:00,,0821.8,5.00,0.00,23.1,22.2,00.0,32.2,24.8,07.1,0000.0,0014.28,0002.99,0000.99
2022-04-06 03:12:00,,0821.9,5.00,0.00,23.1,22.2,00.0,32.1,24.8,07.0,0000.0,0013.58,0002.94,0000.99
2022-04-06 03:13:00,,0822.0,5.00,0.00,23.0,22.2,00.0,32.1,24.8,07.1,0000.0,0013.08,0002.89,0000.98
2022-04-06 03:14:00,,0821.9,5.01,0.00,23.0,22.1,00.0,32.1,24.8,07.1,0000.0,0012.31,0002.89,0000.97
2022-04-06 03:15:00,,0821.9,5.00,0.00,23.0,22.1,00.0,32.1,24.8,07.2,0000.0,0011.86,0002.87,0000.96
2022-04-06 03:16:00,,0822.0,5.00,0.00,23.0,22.1,00.0,32.1,24.8,07.2,0000.0,0011.02,0002.80,0000.93
2022-04-06 03:17:00,,0821.9,4.99,0.00,23.0,22.1,00.0,32.1,24.8,07.1,0000.0,0010.60,0002.73,0000.92
2022-04-06 03:18:00,,0821.8,5.00,0.00,23.0,22.1,00.0,32.1,24.8,06.9,0000.0,0009.23,0002.75,0000.89
2022-04-06 03:19:00,,0822.1,5.00,0.00,23.0,22.1,00.0,32.1,24.7,06.9,0000.0,0008.44,0002.75,0000.88
2022-04-06 03:20:00,,0822.0,5.01,0.00,23.0,22.1,00.0,32.1,24.7,06.9,0000.0,0007.95,0002.67,0000.88
2022-04-06 03:21:00,,0822.0,4.98,0.00,22.9,22.1,00.0,32.0,24.7,06.9,0000.0,0008.24,0002.67,0000.87
2022-04-06 03:22:00,,0822.1,5.01,0.00,22.9,22.0,00.0,32.0,24.6,07.0,0000.0,0008.46,0002.62,0000.87
2022-04-06 03:23:00,,0822.1,5.00,0.00,22.9,22.0,00.0,32.0,24.6,07.0,0000.0,0009.68,0002.70,0000.86
2022-04-06 03:24:00,,0822.1,5.00,0.00,22.9,22.0,00.0,32.0,24.6,07.0,0000.0,0009.96,0002.79,0000.86
2022-04-06 03:25:00,,0822.1,5.00,0.00,22.8,22.0,00.0,32.0,24.6,07.0,0000.0,0010.76,0002.78,0000.87
2022-04-06 03:26:00,,0822.1,4.99,0.00,22.8,22.0,00.0,32.0,24.5,07.0,0000.0,0010.26,0002.70,0000.87
2022-04-06 03:27:00,,0822.1,5.00,0.00,22.8,21.9,00.0,31.9,24.5,07.0,0000.0,0010.35,0002.72,0000.87
2022-04-06 03:28:00,,0822.2,5.00,0.00,22.8,21.9,00.0,31.9,24.5,07.0,0000.0,0010.77,0002.78,0000.88
2022-04-06 03:29:00,,0822.3,4.99,0.00,22.8,21.9,00.0,31.9,24.5,07.1,0000.0,0010.67,0002.69,0000.88
2022-04-06 03:30:00,,0822.4,5.00,0.00,22.8,21.9,00.0,31.9,24.6,07.1,0000.0,0010.99,0002.65,0000.87
2022-04-06 03:31:00,,0822.3,5.00,0.00,22.8,21.9,00.0,31.9,24.6,07.1,0000.0,0011.72,0002.65,0000.87
2022-04-06 03:32:00,,0822.3,5.00,0.00,22.8,21.9,00.0,31.9,24.6,07.1,0000.0,0012.26,0002.63,0000.87
2022-04-06 03:33:00,,0822.3,5.00,0.00,22.8,21.9,00.0,31.9,24.6,07.0,0000.0,0012.13,0002.66,0000.85
2022-04-06 03:34:00,,0822.3,5.00,0.00,22.8,21.9,00.0,31.9,24.6,07.1,0000.0,0012.14,0002.57,0000.83
2022-04-06 03:35:00,,0822.4,5.00,0.00,22.8,22.0,00.0,31.9,24.6,07.1,0000.0,0012.48,0002.46,0000.82
2022-04-06 03:36:00,,0822.5,5.00,0.00,22.8,22.0,00.0,31.9,24.6,07.1,0000.0,0011.35,0002.46,0000.83
2022-04-06 03:37:00,,0822.6,5.00,0.00,22.8,22.0,00.0,31.8,24.6,07.1,0000.0,0011.29,0002.49,0000.84
2022-04-06 03:38:00,,0822.5,5.00,0.00,22.8,21.9,00.0,31.8,24.5,07.0,0000.0,0011.44,0002.48,0000.84
2022-04-06 03:39:00,,0822.5,5.00,0.00,22.8,21.9,00.0,31.8,24.5,07.0,0000.0,0011.91,0002.52,0000.85
2022-04-06 03:40:00,,0822.5,5.00,0.00,22.8,21.8,00.0,31.8,24.5,07.0,0000.0,0012.67,0002.63,0000.86
2022-04-06 03:41:00,,0822.5,5.01,0.00,22.8,21.8,00.0,31.8,24.5,07.1,0000.0,0012.45,0002.63,0000.88
2022-04-06 03:42:00,,0822.5,5.00,0.00,22.8,21.8,00.0,31.8,24.6,07.3,0000.0,0011.82,0002.66,0000.87
2022-04-06 03:43:00,,0822.6,5.00,0.00,22.8,21.9,00.0,31.8,24.6,07.4,0000.0,0011.24,0002.68,0000.87
2022-04-06 03:44:00,,0822.5,4.99,0.00,22.8,21.9,00.0,31.8,24.5,07.4,0000.0,0011.23,0002.65,0000.88
2022-04-06 03:45:00,,0822.5,4.99,0.00,22.8,21.8,00.0,31.8,24.5,07.5,0000.0,0010.29,0002.67,0000.89
2022-04-06 03:46:00,,0822.5,5.00,0.00,22.8,21.8,00.0,31.8,24.5,07.6,0000.0,0009.81,0002.72,0000.89
2022-04-06 03:47:00,,0822.5,5.00,0.00,22.8,21.8,00.0,31.8,24.5,07.7,0000.0,0010.05,0002.68,0000.89
2022-04-06 03:48:00,,0822.6,4.99,0.00,22.7,21.8,00.0,31.8,24.4,07.9,0000.0,0010.66,0002.71,0000.89
2022-04-06 03:49:00,,0822.6,5.00,0.00,22.7,21.8,00.0,31.8,24.4,08.0,0000.0,0011.05,0002.70,0000.89
2022-04-06 03:50:00,,0822.5,5.01,0.00,22.7,21.8,00.0,31.8,24.3,08.0,0000.0,0010.71,0002.58,0000.88
2022-04-06 03:51:00,,0822.6,5.00,0.00,22.6,21.7,00.0,31.8,24.3,08.1,0000.0,0010.46,0002.55,0000.86
2022-04-06 03:52:00,,0822.5,5.00,0.00,22.6,21.7,00.0,31.8,24.3,08.1,0000.0,0010.61,0002.56,0000.85
2022-04-06 03:53:00,,0822.5,5.01,0.00,22.6,21.6,00.0,31.7,24.2,08.1,0000.0,0012.03,0002.58,0000.85
2022-04-06 03:54:00,,0822.5,5.00,0.00,22.5,21.6,00.0,31.7,24.2,08.1,0000.0,0012.97,0002.55,0000.85
2022-04-06 03:55:00,,0822.5,4.99,0.00,22.5,21.6,00.0,31.7,24.2,08.2,0000.0,0013.06,0002.62,0000.84
2022-04-06 03:56:00,,0822.5,5.00,0.00,22.5,21.5,00.0,31.7,24.1,08.2,0000.0,0013.80,0002.57,0000.83
2022-04-06 03:57:00,,0822.6,5.00,0.00,22.4,21.5,00.0,31.7,24.0,08.2,0000.0,0013.61,0002.50,0000.83
2022-04-06 03:58:00,,0822.6,5.00,0.00,22.4,21.4,00.0,31.6,24.0,08.1,0000.0,0013.44,0002.53,0000.82
2022-04-06 03:59:00,,0822.5,5.01,0.00,22.4,21.4,00.0,31.6,24.0,08.2,0000.0,0013.00,0002.50,0000.81
